Location: Lincolnton
(35.4660°N, 81.2500°W)
Time: 02:32:29
(UTC-04:00)

Hubble Space Telescope - Visible Passes

Search period start: 27 July 2016 00:00
Search period end: 06 August 2016 00:00
Orbit: 539 x 543 km, 28.5° (Epoch: 25 July)

Date Brightness Start Highest point End Pass type
(mag) Time Alt. Az. Time Alt. Az. Time Alt. Az.
01 Aug 2.5 06:05:02 10° SW 06:08:11 21° SSE 06:11:20 10° ESE visible
02 Aug 2.3 05:55:01 10° SW 05:58:22 24° SSE 06:01:43 10° ESE visible
03 Aug 2.1 05:45:36 13° SW 05:48:33 26° S 05:52:03 10° ESE visible
04 Aug 2.0 05:36:21 16° SW 05:38:45 28° S 05:42:20 10° ESE visible
05 Aug 1.8 05:27:07 21° SW 05:28:58 30° S 05:32:36 10° ESE visible
